• In Moldova, Republic
  • List of Countries
  • For 7 days
  • Water Temperature
  • Satellite Maps
  • Weather Map
  • Weather Widgets
  • user-avatar
    Login

    Hourly Weather Yulara

    Today, 23 October, Tuesday

    Time Temperature Precipitation Wind Pressure Humidity
    00:00 +29°C° 0 mm 8 mps 715 mmHg 17%
    01:00 +28°C° 0 mm 9 mps 715 mmHg 21%
    02:00 +27°C° 0 mm 9 mps 715 mmHg 25%
    03:00 +26°C° 0 mm 8 mps 715 mmHg 27%
    04:00 +24°C° 0 mm 9 mps 715 mmHg 31%
    05:00 +23°C° 0 mm 9 mps 716 mmHg 35%
    06:00 +22°C° 0 mm 9 mps 716 mmHg 40%
    07:00 +23°C° 0 mm 10 mps 717 mmHg 37%
    08:00 +24°C° 0 mm 10 mps 717 mmHg 33%
    09:00 +27°C° 0 mm 11 mps 718 mmHg 29%
    10:00 +29°C° 0 mm 10 mps 717 mmHg 25%
    11:00 +32°C° 0 mm 9 mps 717 mmHg 20%
    12:00 +34°C° 0 mm 8 mps 717 mmHg 16%
    13:00 +35°C° 0 mm 7 mps 716 mmHg 15%
    14:00 +36°C° 0 mm 7 mps 716 mmHg 13%
    15:00 +38°C° 0 mm 6 mps 715 mmHg 12%
    16:00 +36°C° 0 mm 7 mps 715 mmHg 13%
    17:00 +35°C° 0 mm 7 mps 715 mmHg 14%
    18:00 +35°C° 0 mm 7 mps 716 mmHg 14%
    19:00 +33°C° 0 mm 8 mps 716 mmHg 16%
    20:00 +31°C° 0 mm 8 mps 716 mmHg 17%
    21:00 +29°C° 0 mm 8 mps 716 mmHg 19%
    22:00 +28°C° 0 mm 8 mps 717 mmHg 19%
    23:00 +27°C° 0 mm 8 mps 717 mmHg 20%

    Tomorrow, 24 October, Wednesday

    Time Temperature Precipitation Wind Pressure Humidity
    00:00 +26°C° 0 mm 8 mps 717 mmHg 20%
    01:00 +26°C° 0 mm 8 mps 717 mmHg 21%
    02:00 +24°C° 0 mm 8 mps 717 mmHg 21%
    03:00 +24°C° 0 mm 8 mps 716 mmHg 21%
    04:00 +23°C° 0 mm 8 mps 716 mmHg 22%
    05:00 +23°C° 0 mm 8 mps 717 mmHg 22%
    06:00 +22°C° 0 mm 7 mps 717 mmHg 23%
    07:00 +26°C° 0 mm 8 mps 717 mmHg 20%
    08:00 +28°C° 0 mm 9 mps 717 mmHg 17%
    09:00 +32°C° 0 mm 10 mps 717 mmHg 14%
    10:00 +34°C° 0 mm 9 mps 717 mmHg 13%
    11:00 +38°C° 0 mm 8 mps 717 mmHg 11%
    12:00 +40°C° 0 mm 7 mps 716 mmHg 10%
    13:00 +41°C° 0 mm 6 mps 715 mmHg 9%
    14:00 +41°C° 0 mm 6 mps 715 mmHg 9%
    15:00 +42°C° 0 mm 6 mps 714 mmHg 9%
    16:00 +41°C° 0 mm 5 mps 714 mmHg 11%
    17:00 +40°C° 0 mm 5 mps 714 mmHg 12%
    18:00 +39°C° 0 mm 5 mps 714 mmHg 13%
    19:00 +37°C° 0 mm 5 mps 714 mmHg 17%
    20:00 +36°C° 0 mm 6 mps 714 mmHg 20%
    21:00 +34°C° 0 mm 6 mps 715 mmHg 24%
    22:00 +34°C° 0 mm 5 mps 715 mmHg 25%
    23:00 +33°C° 0 mm 5 mps 714 mmHg 26%

    Day after tomorrow, 25 October, Thursday

    Time Temperature Precipitation Wind Pressure Humidity
    00:00 +32°C° 0 mm 4 mps 714 mmHg 27%
    01:00 +30°C° 0.1 mm 4 mps 714 mmHg 29%
    02:00 +30°C° 0.1 mm 3 mps 714 mmHg 31%
    03:00 +29°C° 0.1 mm 3 mps 714 mmHg 33%
    04:00 +29°C° 0 mm 3 mps 714 mmHg 31%
    05:00 +29°C° 0 mm 3 mps 715 mmHg 29%
    06:00 +29°C° 0 mm 3 mps 715 mmHg 27%
    07:00 +32°C° 0 mm 4 mps 715 mmHg 23%
    08:00 +33°C° 0 mm 4 mps 716 mmHg 19%
    09:00 +34°C° 0 mm 5 mps 716 mmHg 14%
    10:00 +36°C° 0 mm 6 mps 716 mmHg 16%
    11:00 +38°C° 0 mm 6 mps 716 mmHg 17%
    12:00 +40°C° 0 mm 7 mps 716 mmHg 18%
    13:00 +40°C° 0 mm 8 mps 715 mmHg 18%
    14:00 +41°C° 0 mm 8 mps 715 mmHg 17%
    15:00 +42°C° 0 mm 9 mps 715 mmHg 17%
    16:00 +40°C° 0.1 mm 7 mps 715 mmHg 19%
    17:00 +39°C° 0.1 mm 6 mps 715 mmHg 22%
    18:00 +37°C° 0.1 mm 5 mps 715 mmHg 24%
    19:00 +35°C° 0.2 mm 4 mps 715 mmHg 27%
    20:00 +34°C° 0.2 mm 3 mps 716 mmHg 31%
    21:00 +32°C° 0.2 mm 2 mps 716 mmHg 34%
    22:00 +31°C° 0.5 mm 3 mps 716 mmHg 36%
    23:00 +31°C° 0.5 mm 3 mps 716 mmHg 37%

    26 October, Friday

    Time Temperature Precipitation Wind Pressure Humidity
    00:00 +30°C° 0.5 mm 4 mps 716 mmHg 38%
    01:00 +29°C° 0.6 mm 4 mps 716 mmHg 42%
    02:00 +28°C° 0.6 mm 3 mps 716 mmHg 46%
    03:00 +27°C° 0.6 mm 3 mps 716 mmHg 50%
    04:00 +27°C° 0 mm 3 mps 716 mmHg 50%
    05:00 +27°C° 0 mm 2 mps 717 mmHg 51%
    06:00 +27°C° 0 mm 2 mps 717 mmHg 51%
    07:00 +29°C° 0 mm 3 mps 717 mmHg 45%
    08:00 +32°C° 0 mm 4 mps 718 mmHg 38%
    09:00 +35°C° 0 mm 4 mps 718 mmHg 31%
    10:00 +36°C° 0 mm 5 mps 718 mmHg 27%
    11:00 +39°C° 0 mm 6 mps 718 mmHg 24%
    12:00 +40°C° 0 mm 6 mps 717 mmHg 20%
    13:00 +40°C° 0 mm 6 mps 716 mmHg 20%
    14:00 +40°C° 0 mm 6 mps 716 mmHg 20%
    15:00 +39°C° 0 mm 6 mps 715 mmHg 20%
    16:00 +38°C° 0.2 mm 6 mps 715 mmHg 24%
    17:00 +36°C° 0.2 mm 7 mps 716 mmHg 29%
    18:00 +34°C° 0.2 mm 8 mps 716 mmHg 33%
    19:00 +32°C° 1 mm 8 mps 717 mmHg 43%
    20:00 +28°C° 1 mm 8 mps 718 mmHg 53%
    21:00 +26°C° 1 mm 9 mps 719 mmHg 63%
    22:00 +24°C° 1.3 mm 8 mps 719 mmHg 65%
    23:00 +24°C° 1.3 mm 7 mps 719 mmHg 66%

    27 October, Saturday

    Time Temperature Precipitation Wind Pressure Humidity
    00:00 +24°C° 1.3 mm 6 mps 719 mmHg 67%
    01:00 +23°C° 0.8 mm 6 mps 718 mmHg 67%
    02:00 +23°C° 0.8 mm 6 mps 718 mmHg 68%
    03:00 +22°C° 0.8 mm 6 mps 717 mmHg 68%
    04:00 +22°C° 0.6 mm 4 mps 717 mmHg 66%
    05:00 +22°C° 0.6 mm 3 mps 717 mmHg 63%
    06:00 +23°C° 0.6 mm 2 mps 717 mmHg 61%
    07:00 +21°C° 1.1 mm 4 mps 718 mmHg 65%
    08:00 +21°C° 1.1 mm 5 mps 718 mmHg 69%
    09:00 +20°C° 1.1 mm 7 mps 719 mmHg 73%
    10:00 +20°C° 0.6 mm 7 mps 719 mmHg 70%
    11:00 +20°C° 0.6 mm 7 mps 718 mmHg 68%
    12:00 +20°C° 0.6 mm 7 mps 718 mmHg 65%
    13:00 +21°C° 0 mm 6 mps 718 mmHg 62%
    14:00 +22°C° 0 mm 5 mps 717 mmHg 58%
    15:00 +22°C° 0 mm 4 mps 716 mmHg 54%
    16:00 +22°C° 0 mm 4 mps 717 mmHg 54%
    17:00 +23°C° 0 mm 5 mps 717 mmHg 53%
    18:00 +23°C° 0 mm 5 mps 717 mmHg 53%
    19:00 +22°C° 0 mm 4 mps 717 mmHg 56%
    20:00 +21°C° 0 mm 3 mps 717 mmHg 59%
    21:00 +22°C° 0 mm 1 mps 718 mmHg 63%
    22:00 +22°C° 0 mm 1 mps 717 mmHg 63%
    23:00 +21°C° 0 mm 2 mps 717 mmHg 63%

    28 October, Sunday

    Time Temperature Precipitation Wind Pressure Humidity
    00:00 +21°C° 0 mm 2 mps 716 mmHg 63%
    01:00 +20°C° 0 mm 2 mps 716 mmHg 63%
    02:00 +20°C° 0 mm 2 mps 715 mmHg 64%
    03:00 +20°C° 0 mm 2 mps 715 mmHg 65%
    04:00 +20°C° 0 mm 2 mps 715 mmHg 65%
    05:00 +20°C° 0 mm 2 mps 715 mmHg 64%
    06:00 +20°C° 0 mm 2 mps 715 mmHg 64%
    07:00 +23°C° 0 mm 1 mps 716 mmHg 59%
    08:00 +24°C° 0 mm 1 mps 716 mmHg 54%
    09:00 +26°C° 0 mm 1 mps 716 mmHg 48%
    10:00 +27°C° 0 mm 1 mps 716 mmHg 45%
    11:00 +28°C° 0 mm 2 mps 716 mmHg 42%
    12:00 +29°C° 0 mm 2 mps 715 mmHg 39%
    13:00 +30°C° 0 mm 3 mps 715 mmHg 38%
    14:00 +31°C° 0 mm 3 mps 715 mmHg 36%
    15:00 +32°C° 0 mm 4 mps 714 mmHg 34%
    16:00 +32°C° 0 mm 4 mps 715 mmHg 37%
    17:00 +30°C° 0 mm 5 mps 715 mmHg 39%
    18:00 +29°C° 0 mm 5 mps 715 mmHg 42%
    19:00 +28°C° 0.2 mm 6 mps 716 mmHg 46%
    20:00 +27°C° 0.2 mm 7 mps 716 mmHg 51%
    21:00 +26°C° 0.2 mm 7 mps 717 mmHg 55%
    22:00 +24°C° 0.4 mm 7 mps 717 mmHg 57%
    23:00 +23°C° 0.4 mm 6 mps 717 mmHg 59%

    29 October, Monday

    Time Temperature Precipitation Wind Pressure Humidity
    00:00 +22°C° 0.4 mm 5 mps 717 mmHg 61%
    01:00 +22°C° 0.1 mm 5 mps 717 mmHg 61%
    02:00 +22°C° 0.1 mm 5 mps 716 mmHg 62%
    03:00 +21°C° 0.1 mm 5 mps 716 mmHg 63%
    04:00 +21°C° 0 mm 5 mps 716 mmHg 64%
    05:00 +20°C° 0 mm 5 mps 717 mmHg 66%
    06:00 +20°C° 0 mm 5 mps 717 mmHg 67%
    07:00 +21°C° 0 mm 5 mps 717 mmHg 62%
    08:00 +23°C° 0 mm 4 mps 718 mmHg 56%
    09:00 +25°C° 0 mm 4 mps 718 mmHg 51%
    10:00 +27°C° 0 mm 3 mps 718 mmHg 47%
    11:00 +28°C° 0 mm 2 mps 717 mmHg 43%
    12:00 +30°C° 0 mm 2 mps 717 mmHg 39%
    13:00 +31°C° 0 mm 2 mps 716 mmHg 36%
    14:00 +32°C° 0 mm 2 mps 716 mmHg 32%
    15:00 +34°C° 0 mm 3 mps 715 mmHg 29%
    16:00 +34°C° 0 mm 3 mps 716 mmHg 28%
    17:00 +33°C° 0 mm 4 mps 716 mmHg 28%
    18:00 +33°C° 0 mm 4 mps 716 mmHg 27%
    19:00 +32°C° 0 mm 5 mps 717 mmHg 29%
    20:00 +30°C° 0 mm 5 mps 717 mmHg 30%
    21:00 +29°C° 0 mm 6 mps 718 mmHg 31%
    22:00 +28°C° 0 mm 6 mps 718 mmHg 34%
    23:00 +28°C° 0 mm 6 mps 718 mmHg 38%
    Show more